Location: Bauerbach
(50.4985°N, 10.3912°E)
Time: 17:33:48
(UTC+00:00)

Cosmos 1943 Rocket - Pass Details

Date: 13 January 2026
Orbit: 811 x 842 km, 71.0° (Epoch: 16 February)

Event Time Altitude Azimuth Distance (km) Brightness Sun altitude
Rises 05:59:19 0° 216° (SW) 3,326 5.1 -11.5°
Reaches altitude 10° 06:01:45 10° 218° (SW) 2,396 4.4 -11.1°
Maximum altitude 06:07:13 69° 302° (WNW) 871 2.1 -10.3°
Drops below altitude 10° 06:12:42 10° 26° (NNE) 2,410 4.6 -9.5°
Sets 06:15:10 0° 29° (NNE) 3,348 5.4 -9.2°
